When you browse on this site, cookies collect data to enhance your experience and personalize the content and advertising you see.
Visit our Privacy Policy to learn more. By continuing to use the site, you agree to this use of cookies and data.
  • In Schweiz
  • Länderverzeichnis
  • Für 7 Tage
  • Wassertemperatur
  • Wetterkarte
  • Widgets
  • user-avatar
    Anmelden

    Stündliche Wetter Finiks

    Heute, 11 Dezember, Mittwoch

    Zeit Temperatur Niederschläge Wind Luftdruck Luftfeuchtigkeit
    00:00 +15°C° 0 mm 0 m/S 736 mmHg 43%
    01:00 +15°C° 0 mm 0 m/S 736 mmHg 43%
    02:00 +14°C° 0 mm 0 m/S 736 mmHg 44%
    03:00 +15°C° 0 mm 1 m/S 736 mmHg 44%
    04:00 +15°C° 0 mm 1 m/S 736 mmHg 43%
    05:00 +15°C° 0 mm 1 m/S 736 mmHg 43%
    06:00 +15°C° 0 mm 1 m/S 736 mmHg 43%
    07:00 +15°C° 0 mm 1 m/S 736 mmHg 43%
    08:00 +15°C° 0 mm 1 m/S 736 mmHg 43%
    09:00 +16°C° 0 mm 1 m/S 736 mmHg 40%
    10:00 +18°C° 0 mm 1 m/S 736 mmHg 37%
    11:00 +19°C° 0 mm 1 m/S 736 mmHg 34%
    12:00 +20°C° 0 mm 1 m/S 735 mmHg 33%
    13:00 +21°C° 0 mm 1 m/S 735 mmHg 31%
    14:00 +21°C° 0 mm 1 m/S 734 mmHg 29%
    15:00 +21°C° 0 mm 1 m/S 734 mmHg 31%
    16:00 +21°C° 0 mm 1 m/S 734 mmHg 33%
    17:00 +20°C° 0 mm 1 m/S 735 mmHg 35%
    18:00 +20°C° 0 mm 1 m/S 735 mmHg 36%
    19:00 +19°C° 0 mm 1 m/S 735 mmHg 37%
    20:00 +16°C° 0 mm 0 m/S 735 mmHg 39%
    21:00 +16°C° 0 mm 0 m/S 735 mmHg 39%
    22:00 +18°C° 0 mm 1 m/S 735 mmHg 40%
    23:00 +16°C° 0 mm 1 m/S 736 mmHg 41%

    Morgen, 12 Dezember, Donnerstag

    Zeit Temperatur Niederschläge Wind Luftdruck Luftfeuchtigkeit
    00:00 +15°C° 0 mm 0 m/S 736 mmHg 41%
    01:00 +15°C° 0 mm 0 m/S 736 mmHg 42%
    02:00 +14°C° 0 mm 0 m/S 736 mmHg 43%
    03:00 +14°C° 0 mm 0 m/S 736 mmHg 43%
    04:00 +14°C° 0 mm 0 m/S 735 mmHg 44%
    05:00 +14°C° 0 mm 0 m/S 735 mmHg 44%
    06:00 +15°C° 0 mm 1 m/S 736 mmHg 44%
    07:00 +15°C° 0 mm 1 m/S 736 mmHg 45%
    08:00 +15°C° 0 mm 1 m/S 736 mmHg 45%
    09:00 +16°C° 0 mm 1 m/S 737 mmHg 41%
    10:00 +18°C° 0 mm 1 m/S 737 mmHg 37%
    11:00 +19°C° 0 mm 1 m/S 737 mmHg 33%
    12:00 +20°C° 0 mm 1 m/S 737 mmHg 32%
    13:00 +19°C° 0 mm 0 m/S 736 mmHg 31%
    14:00 +19°C° 0 mm 0 m/S 735 mmHg 30%
    15:00 +19°C° 0 mm 0 m/S 735 mmHg 32%
    16:00 +21°C° 0 mm 1 m/S 735 mmHg 34%
    17:00 +20°C° 0 mm 1 m/S 735 mmHg 35%
    18:00 +20°C° 0 mm 1 m/S 736 mmHg 37%
    19:00 +19°C° 0 mm 1 m/S 736 mmHg 38%
    20:00 +16°C° 0 mm 0 m/S 736 mmHg 40%
    21:00 +16°C° 0 mm 0 m/S 736 mmHg 40%
    22:00 +16°C° 0 mm 0 m/S 736 mmHg 41%
    23:00 +15°C° 0 mm 0 m/S 736 mmHg 42%

    übermorgen, 13 Dezember, Freitag

    Zeit Temperatur Niederschläge Wind Luftdruck Luftfeuchtigkeit
    00:00 +15°C° 0 mm 0 m/S 736 mmHg 42%
    01:00 +15°C° 0 mm 0 m/S 735 mmHg 43%
    02:00 +14°C° 0 mm 0 m/S 735 mmHg 43%
    03:00 +14°C° 0 mm 0 m/S 735 mmHg 43%
    04:00 +14°C° 0 mm 0 m/S 735 mmHg 43%
    05:00 +14°C° 0 mm 0 m/S 735 mmHg 44%
    06:00 +14°C° 0 mm 0 m/S 735 mmHg 44%
    07:00 +14°C° 0 mm 0 m/S 735 mmHg 44%
    08:00 +14°C° 0 mm 0 m/S 734 mmHg 44%
    09:00 +15°C° 0 mm 0 m/S 735 mmHg 40%
    10:00 +16°C° 0 mm 0 m/S 735 mmHg 36%
    11:00 +18°C° 0 mm 0 m/S 735 mmHg 32%
    12:00 +19°C° 0 mm 0 m/S 734 mmHg 30%
    13:00 +19°C° 0 mm 0 m/S 733 mmHg 29%
    14:00 +20°C° 0 mm 0 m/S 733 mmHg 28%
    15:00 +20°C° 0 mm 0 m/S 732 mmHg 30%
    16:00 +19°C° 0 mm 0 m/S 732 mmHg 32%
    17:00 +21°C° 0 mm 1 m/S 732 mmHg 34%
    18:00 +18°C° 0 mm 0 m/S 732 mmHg 36%
    19:00 +18°C° 0 mm 0 m/S 732 mmHg 37%
    20:00 +17°C° 0 mm 0 m/S 732 mmHg 39%
    21:00 +17°C° 0 mm 0 m/S 732 mmHg 39%
    22:00 +16°C° 0 mm 0 m/S 732 mmHg 40%
    23:00 +16°C° 0 mm 0 m/S 732 mmHg 40%

    14 Dezember, Samstag

    Zeit Temperatur Niederschläge Wind Luftdruck Luftfeuchtigkeit
    00:00 +16°C° 0 mm 0 m/S 731 mmHg 41%
    01:00 +15°C° 0 mm 0 m/S 731 mmHg 42%
    02:00 +16°C° 0 mm 1 m/S 731 mmHg 42%
    03:00 +16°C° 0 mm 1 m/S 730 mmHg 43%
    04:00 +16°C° 0 mm 1 m/S 730 mmHg 44%
    05:00 +15°C° 0 mm 1 m/S 729 mmHg 44%
    06:00 +15°C° 0 mm 1 m/S 729 mmHg 45%
    07:00 +15°C° 0 mm 1 m/S 729 mmHg 45%
    08:00 +15°C° 0 mm 1 m/S 729 mmHg 45%
    09:00 +18°C° 0 mm 1 m/S 729 mmHg 41%
    10:00 +19°C° 0 mm 1 m/S 729 mmHg 37%
    11:00 +21°C° 0 mm 1 m/S 729 mmHg 33%
    12:00 +21°C° 0 mm 2 m/S 728 mmHg 31%
    13:00 +21°C° 0 mm 2 m/S 728 mmHg 30%
    14:00 +23°C° 0 mm 2 m/S 727 mmHg 28%
    15:00 +23°C° 0 mm 2 m/S 727 mmHg 30%
    16:00 +21°C° 0 mm 2 m/S 727 mmHg 32%
    17:00 +21°C° 0 mm 2 m/S 727 mmHg 34%
    18:00 +20°C° 0 mm 2 m/S 727 mmHg 36%
    19:00 +20°C° 0 mm 1 m/S 727 mmHg 38%
    20:00 +20°C° 0 mm 1 m/S 727 mmHg 39%
    21:00 +18°C° 0 mm 2 m/S 727 mmHg 41%
    22:00 +18°C° 0 mm 2 m/S 727 mmHg 42%
    23:00 +18°C° 0 mm 2 m/S 727 mmHg 43%

    15 Dezember, Sonntag

    Zeit Temperatur Niederschläge Wind Luftdruck Luftfeuchtigkeit
    00:00 +17°C° 0 mm 2 m/S 727 mmHg 45%
    01:00 +17°C° 0 mm 2 m/S 726 mmHg 47%
    02:00 +16°C° 0 mm 2 m/S 726 mmHg 49%
    03:00 +16°C° 0 mm 2 m/S 726 mmHg 49%
    04:00 +16°C° 0 mm 2 m/S 726 mmHg 48%
    05:00 +15°C° 0 mm 2 m/S 726 mmHg 48%
    06:00 +15°C° 0 mm 2 m/S 726 mmHg 50%
    07:00 +15°C° 0 mm 2 m/S 726 mmHg 51%
    08:00 +14°C° 0 mm 2 m/S 727 mmHg 52%
    09:00 +15°C° 0 mm 2 m/S 727 mmHg 47%
    10:00 +16°C° 0 mm 3 m/S 727 mmHg 42%
    11:00 +17°C° 0 mm 4 m/S 727 mmHg 36%
    12:00 +17°C° 0 mm 5 m/S 726 mmHg 36%
    13:00 +17°C° 0 mm 5 m/S 726 mmHg 36%
    14:00 +17°C° 0 mm 6 m/S 726 mmHg 35%
    15:00 +17°C° 0 mm 6 m/S 726 mmHg 39%
    16:00 +17°C° 0 mm 5 m/S 726 mmHg 43%
    17:00 +16°C° 0 mm 5 m/S 727 mmHg 47%
    18:00 +17°C° 0 mm 4 m/S 728 mmHg 43%
    19:00 +15°C° 0 mm 4 m/S 729 mmHg 39%
    20:00 +14°C° 0 mm 4 m/S 729 mmHg 35%
    21:00 +14°C° 0 mm 4 m/S 730 mmHg 36%
    22:00 +13°C° 0 mm 4 m/S 730 mmHg 38%
    23:00 +13°C° 0 mm 4 m/S 731 mmHg 39%

    16 Dezember, Montag

    Zeit Temperatur Niederschläge Wind Luftdruck Luftfeuchtigkeit
    00:00 +12°C° 0 mm 3 m/S 731 mmHg 37%
    01:00 +12°C° 0 mm 3 m/S 731 mmHg 35%
    02:00 +11°C° 0 mm 3 m/S 731 mmHg 32%
    03:00 +11°C° 0 mm 3 m/S 732 mmHg 33%
    04:00 +12°C° 0 mm 2 m/S 732 mmHg 34%
    05:00 +10°C° 0 mm 2 m/S 732 mmHg 35%
    06:00 +10°C° 0 mm 2 m/S 733 mmHg 36%
    07:00 +10°C° 0 mm 2 m/S 734 mmHg 38%
    08:00 +10°C° 0 mm 2 m/S 734 mmHg 40%
    09:00 +12°C° 0 mm 2 m/S 734 mmHg 36%
    10:00 +12°C° 0 mm 3 m/S 735 mmHg 32%
    11:00 +14°C° 0 mm 3 m/S 735 mmHg 28%
    12:00 +15°C° 0 mm 2 m/S 734 mmHg 25%
    13:00 +16°C° 0 mm 2 m/S 734 mmHg 22%
    14:00 +17°C° 0 mm 2 m/S 733 mmHg 18%
    15:00 +17°C° 0 mm 2 m/S 733 mmHg 19%
    16:00 +17°C° 0 mm 2 m/S 733 mmHg 19%
    17:00 +16°C° 0 mm 2 m/S 733 mmHg 20%
    18:00 +16°C° 0 mm 2 m/S 734 mmHg 21%
    19:00 +15°C° 0 mm 2 m/S 734 mmHg 23%
    20:00 +14°C° 0 mm 2 m/S 735 mmHg 24%
    21:00 +14°C° 0 mm 2 m/S 735 mmHg 24%
    22:00 +13°C° 0 mm 2 m/S 735 mmHg 24%
    23:00 +13°C° 0 mm 2 m/S 735 mmHg 24%
    Mehr zeigen